Theta_e
335 340 328 338 345 349 342 343 345 340 333 331 332 333 333 333 339 342 342 341 340 340 340 340 340 339 339 338 339 341 341 340 338 337 335 334 333 332 331 331 330 329 330
336 340 328 334 342 346 344 345 343 335 331 332 333 333 333 332 336 341 342 342 342 343 343 342 341 341 340 339 337 337 338 338 337 336 334 333 333 333 332 332 331 329 330
338 341 335 332 339 341 343 340 336 333 331 332 333 333 333 330 334 338 340 342 344 344 343 343 342 342 341 341 340 334 329 333 329 333 334 333 332 333 332 332 331 330 330
338 341 341 332 336 339 338 337 336 333 332 333 334 334 334 330 331 337 341 343 345 344 343 343 342 341 340 338 336 334 334 328 329 334 336 335 332 332 332 332 331 330 330
338 339 344 331 334 337 338 339 338 335 334 333 334 334 334 333 330 336 339 341 344 343 342 339 335 333 333 331 330 330 330 328 332 336 337 337 334 330 333 332 330 329 329
337 339 345 330 333 336 338 340 340 337 335 335 334 334 335 334 334 332 334 338 338 335 333 333 333 333 334 334 332 328 327 327 334 337 337 335 335 328 331 330 327 329 330
338 340 343 329 332 335 337 341 341 338 336 336 336 335 335 335 336 335 334 334 333 332 332 332 333 334 334 335 335 332 329 329 335 337 337 338 335 326 332 332 331 331 330
339 340 343 335 331 331 333 336 339 339 337 336 336 337 336 335 335 337 337 337 336 335 335 335 335 335 336 336 336 335 333 331 334 337 336 338 330 327 327 328 331 331 330
341 340 344 343 343 333 332 332 333 333 334 334 335 336 337 337 337 338 337 337 338 338 338 338 338 338 338 338 338 337 337 337 337 338 337 338 336 330 330 330 329 331 330
343 341 343 343 343 343 343 332 331 331 331 333 334 335 336 337 338 339 339 340 341 342 342 342 343 341 340 339 339 338 338 339 342 340 340 339 336 330 332 329 330 330 331
345 344 343 342 342 343 343 341 334 331 330 330 334 335 339 344 344 348 345 346 345 344 344 344 344 344 343 340 338 338 338 344 343 343 342 340 339 336 333 333 329 329 329
347 346 344 343 342 343 343 345 342 341 338 338 338 342 341 342 344 344 344 341 343 344 342 340 339 339 336 342 345 343 343 343 343 344 343 342 340 339 336 337 333 330 330
346 347 346 346 344 343 343 345 343 342 340 340 340 341 339 340 343 341 342 341 343 341 343 345 345 345 342 344 342 344 345 344 342 343 344 341 340 338 338 340 336 334 332
346 347 347 347 348 345 343 343 344 343 342 342 341 342 339 340 340 340 339 339 342 342 343 344 343 343 342 342 343 344 343 344 342 344 344 343 339 339 338 340 339 337 335
347 347 348 348 350 350 348 345 345 345 343 342 341 342 339 338 337 338 338 338 340 341 343 344 346 346 346 344 342 341 340 341 342 344 343 345 341 340 339 340 343 340 338
350 348 348 349 351 351 351 350 347 346 344 344 342 342 342 340 338 337 337 339 339 342 343 344 346 348 348 346 345 345 344 343 341 341 340 345 344 340 340 340 343 343 341
350 348 347 349 350 352 351 351 350 348 345 344 343 344 344 343 341 340 336 336 337 343 345 346 347 347 347 346 345 345 345 344 340 341 339 342 346 344 341 339 342 343 342
351 349 347 345 347 351 351 350 349 348 348 346 345 344 345 344 343 342 338 336 334 336 341 345 346 345 346 345 344 344 343 343 341 342 338 339 343 344 345 341 340 339 339
349 349 349 348 346 347 351 350 349 349 348 347 346 344 344 344 342 342 339 337 340 338 338 341 344 346 347 346 344 343 342 342 342 342 341 339 342 344 343 346 343 339 338
348 347 347 347 347 348 348 348 347 346 346 344 344 342 342 342 342 342 341 341 343 343 344 346 347 346 348 347 344 341 342 342 342 342 342 341 340 342 344 345 346 343 339
348 349 349 348 347 344 344 343 343 344 345 343 342 341 343 344 344 343 343 344 346 346 346 347 349 350 350 347 347 343 342 343 345 341 340 338 338 342 344 346 346 345 343
342 344 346 347 349 347 345 344 344 345 347 349 349 347 346 347 348 349 347 347 347 348 348 349 350 349 348 347 346 341 342 340 342 343 340 337 338 338 343 344 346 345 344
339 340 342 344 347 349 350 349 348 350 346 346 344 340 335 331 329 338 339 339 339 342 346 349 350 350 350 346 348 345 341 341 339 339 342 338 339 341 343 344 344 344 345
337 339 339 339 340 341 343 346 348 347 344 342 337 336 330 330 330 331 336 337 330 327 330 340 346 344 344 343 341 344 343 342 342 340 342 341 341 339 343 342 344 344 344
333 333 333 334 336 339 339 339 339 339 339 338 336 334 331 330 330 330 331 332 334 335 336 337 337 341 341 342 340 338 341 344 343 343 340 341 342 340 342 344 343 342 343
327 327 327 326 327 328 330 332 333 334 333 332 331 331 330 328 328 330 333 333 336 336 337 338 338 340 340 341 341 341 340 341 340 341 343 338 337 341 341 342 342 342 341
Wind_Speed
17 20 22 20 18 19 23 23 21 19 18 18 17 17 17 17 17 18 18 20 20 19 19 19 18 17 16 15 13 13 14 12 12 11 12 12 11 11 11 8 7 12 12
23 22 24 24 22 21 22 23 21 19 19 18 18 18 17 17 18 19 20 20 19 18 18 18 18 16 15 14 13 12 10 10 10 10 13 14 12 11 10 10 11 11 11
24 24 25 26 26 25 24 23 21 20 19 19 19 18 17 17 19 20 21 20 18 17 16 15 15 14 12 12 13 12 12 11 13 15 10 11 10 10 10 10 10 9 10
25 24 22 26 25 24 23 21 20 19 19 19 19 18 17 17 18 19 19 17 16 15 14 13 12 12 10 9 7 7 8 9 10 10 9 10 10 9 9 9 8 8 8
22 22 21 25 24 24 22 21 20 19 18 18 17 17 16 15 16 17 16 15 14 13 12 11 11 11 10 9 8 7 6 7 10 10 9 9 8 7 8 8 7 8 8
21 20 21 24 23 22 21 21 20 18 17 17 16 16 15 15 15 15 14 13 12 12 11 10 9 9 8 8 8 8 7 7 9 7 7 8 8 6 6 7 7 7 6
21 20 21 23 21 19 18 18 18 18 18 17 16 15 14 14 14 13 13 12 11 10 8 8 7 7 6 6 5 4 4 6 1 5 5 5 4 7 5 5 5 6 6
19 19 20 22 21 20 19 18 17 16 16 16 15 15 15 14 13 12 11 10 9 8 7 5 5 4 3 3 3 3 2 3 1 2 2 2 1 4 4 4 4 4 5
18 18 18 18 18 18 18 18 18 17 17 16 15 14 13 13 12 11 10 9 8 6 5 4 3 2 1 1 2 2 1 1 3 1 2 1 6 1 2 3 4 4 4
18 18 17 18 17 16 14 16 16 16 15 14 14 14 13 12 12 11 10 9 8 6 5 5 4 3 3 5 6 5 5 5 6 3 4 4 9 5 4 4 5 5 6
18 18 17 18 19 17 16 17 17 16 15 14 13 13 12 9 10 10 10 11 9 7 6 6 6 6 7 7 8 9 7 9 5 4 6 8 9 8 8 5 6 6 6
20 20 19 18 18 18 15 14 14 13 13 13 12 12 12 10 10 10 10 11 11 10 8 8 8 8 6 6 7 6 6 7 6 6 8 9 10 9 11 10 7 7 8
20 20 20 18 17 16 14 13 14 14 13 13 13 12 12 11 11 11 9 9 9 9 8 7 7 5 4 5 4 4 6 7 8 7 6 10 10 9 11 14 11 11 10
18 19 20 20 19 18 15 15 14 14 14 14 15 15 13 12 11 10 10 9 9 9 8 7 6 6 5 6 7 7 8 9 9 7 9 12 10 10 12 15 14 11 11
12 14 16 17 17 16 15 12 12 12 12 11 11 12 13 12 11 11 10 10 10 9 9 8 8 8 8 9 9 9 10 10 11 11 11 12 12 12 13 15 17 16 14
9 11 13 15 16 14 13 12 11 11 11 12 11 11 13 11 10 10 11 10 11 11 11 10 10 10 10 11 12 13 14 12 12 12 12 12 13 13 14 15 17 18 17
8 10 11 14 14 13 13 13 13 12 11 11 11 11 11 12 12 11 12 11 13 12 12 13 12 11 14 14 15 15 15 14 13 12 12 12 8 12 14 15 17 17 17
6 8 10 11 13 14 13 12 12 12 12 11 11 11 12 14 14 12 14 14 15 15 15 14 13 13 14 14 15 15 15 15 13 12 12 11 12 10 11 14 16 15 17
3 6 8 11 13 14 13 13 12 11 11 12 11 12 12 12 14 14 15 16 15 15 16 16 15 14 14 14 16 15 15 15 14 13 12 12 12 11 10 10 11 19 18
2 3 5 7 10 11 11 11 11 11 11 11 11 12 10 10 12 14 15 18 15 15 17 17 16 15 15 14 14 13 13 15 15 14 12 12 13 12 12 11 10 14 21
3 3 4 5 7 9 10 11 10 11 10 9 9 8 7 7 9 13 14 15 16 18 19 17 17 15 16 14 13 15 15 15 16 15 12 11 11 10 11 12 12 13 12
7 7 6 5 5 8 9 9 8 9 8 9 10 8 7 4 2 8 13 16 19 20 20 18 16 16 15 13 13 12 8 8 12 10 11 9 9 12 10 10 10 11 9
11 11 11 10 8 4 5 7 9 11 12 12 13 11 9 10 13 10 13 15 17 21 23 13 10 12 16 15 9 13 6 8 4 7 8 8 5 6 6 7 8 10 8
12 8 7 7 5 7 7 5 5 8 10 9 7 9 10 7 12 15 13 16 26 25 30 27 13 10 12 10 8 10 15 16 9 9 7 9 6 7 7 9 8 8 8
12 14 14 14 14 10 9 8 8 8 8 5 5 7 5 2 3 17 19 17 24 16 22 21 20 17 14 14 14 16 16 14 15 13 9 5 7 6 6 7 8 8 8
13 13 13 15 15 13 12 11 10 8 6 4 4 4 6 8 7 2 5 9 8 20 28 23 22 22 18 16 16 17 18 14 12 13 8 12 11 5 4 7 8 10 10
Wind_Direction
156 159 161 161 158 157 162 162 159 152 142 133 124 112 106 104 106 106 104 105 103 101 100 99 97 95 93 89 85 87 83 81 79 79 81 82 80 81 83 72 86 81 81
153 159 162 163 163 160 164 163 160 153 144 136 126 116 111 108 110 112 111 108 106 104 101 101 99 96 96 93 87 86 83 80 85 89 82 78 84 80 77 72 75 85 85
155 160 163 166 167 167 167 166 163 157 150 141 131 122 115 112 114 117 116 114 111 109 107 107 107 107 102 98 88 78 82 87 92 85 83 79 80 87 87 80 79 82 89
157 160 165 167 168 170 168 167 164 158 152 143 135 127 121 116 118 119 119 118 117 114 113 113 112 108 105 100 93 81 83 83 87 73 73 81 77 94 98 92 93 90 85
158 160 168 168 170 169 169 168 165 160 154 145 139 133 127 121 121 123 123 123 122 119 116 114 110 104 100 93 87 84 94 96 86 71 75 80 78 89 106 93 86 83 100
160 162 178 171 171 171 169 167 166 161 157 150 145 141 138 133 128 128 127 128 124 124 122 119 110 103 97 86 83 82 92 89 83 81 79 75 76 95 111 100 96 97 96
163 164 169 172 173 173 169 168 168 165 162 158 155 150 147 143 140 137 137 136 134 134 136 133 120 114 103 86 78 82 93 91 64 81 76 78 85 84 110 115 119 113 107
167 166 169 174 177 175 173 171 173 172 169 168 165 161 157 154 154 151 151 147 148 150 154 151 145 137 123 91 73 66 97 108 86 63 80 84 43 79 119 132 135 133 123
172 170 170 172 177 180 180 179 179 178 178 176 175 171 166 164 164 166 167 167 168 173 175 177 183 184 208 235 279 286 318 310 264 296 285 297 273 318 164 167 168 155 154
178 178 175 176 178 179 185 188 187 185 184 184 183 179 177 177 177 181 183 185 185 190 203 217 233 238 247 261 266 266 275 297 249 279 264 255 276 259 226 202 198 188 184
186 185 184 183 185 186 186 192 189 191 188 190 190 191 187 184 195 205 200 215 203 216 227 238 251 256 267 275 271 267 266 259 266 283 281 249 287 253 231 226 214 207 201
188 191 192 192 191 191 190 191 188 193 191 193 194 199 193 201 201 204 210 220 214 217 230 242 250 257 275 253 240 272 254 266 280 289 287 299 287 258 228 227 230 216 214
193 195 198 196 197 198 197 195 196 199 199 201 201 202 205 211 213 210 215 221 224 238 231 243 252 243 259 277 275 282 292 286 267 284 279 285 287 262 232 224 237 221 219
194 198 200 199 198 199 202 203 204 206 205 207 206 203 203 209 215 217 220 218 218 217 217 218 234 239 250 260 268 274 275 283 285 282 281 280 278 268 237 224 228 229 223
201 203 208 204 204 204 205 209 217 219 220 223 220 218 214 219 221 223 226 225 225 220 225 224 238 251 253 255 257 260 261 266 277 274 283 279 271 259 247 226 220 223 220
212 213 208 205 208 210 214 220 223 225 228 228 229 230 225 228 233 234 237 236 233 233 238 245 247 253 263 266 259 253 256 258 264 269 274 274 280 259 248 233 219 221 221
220 215 203 202 206 212 216 223 229 233 235 234 232 234 234 233 238 234 242 240 242 242 246 248 252 255 261 259 259 259 256 258 262 261 264 271 263 273 256 237 222 224 223
227 200 204 204 204 209 216 221 229 229 230 229 233 235 233 234 236 241 243 244 241 241 243 246 247 255 256 259 264 266 264 259 264 258 263 261 267 269 261 246 229 224 232
200 198 200 202 210 209 210 217 223 224 225 227 227 229 230 236 242 245 249 252 248 247 248 246 248 251 259 263 263 262 266 265 263 264 270 270 265 269 260 247 248 221 225
159 147 181 201 199 202 205 205 209 214 219 222 229 237 240 240 241 245 250 250 248 250 250 250 252 253 257 268 276 282 272 268 264 262 264 266 267 266 259 252 243 232 227
90 131 170 195 197 197 199 203 201 206 200 203 212 222 235 247 256 256 260 263 259 251 250 252 255 257 262 262 268 269 264 260 262 264 259 267 271 266 261 245 239 238 221
74 79 84 114 174 208 220 220 210 181 168 141 128 109 110 140 247 281 272 273 274 263 250 243 250 264 259 262 262 276 282 274 238 246 252 255 265 279 261 239 229 227 223
62 71 73 65 73 104 151 169 163 137 127 144 136 127 88 47 26 13 329 325 310 320 278 259 251 253 264 275 239 261 286 287 329 213 232 257 278 273 250 225 228 226 223
67 75 57 56 74 81 82 109 161 168 155 139 126 108 90 61 22 3 344 324 313 303 298 316 302 272 264 268 278 256 267 284 283 282 201 213 235 274 244 232 217 216 213
82 79 78 73 71 79 93 105 116 112 120 112 111 99 96 53 333 313 312 317 304 290 267 287 293 282 279 269 262 267 264 262 249 262 275 203 206 206 236 228 221 215 205
95 87 82 78 74 74 79 86 94 102 102 80 38 358 10 4 0 299 261 270 302 276 277 280 275 281 278 273 270 264 261 259 251 242 249 262 265 193 216 228 212 215 210